Machine Overzicht

Generator events en service beheer USB: 6D25E008D8 ×
Records
397
van 353,749
Machines
1
Starts
129
Warnings
28
25 resultaten · pagina 2 van 16
Dubbelklik service uren om te bewerken
ID Machine Gebeurtenis Tijd Uren Service Status USB ID
343003 OC010 Battery Voltage 05-01-2026 13:12:38 10,093 500 OVER BEURT URGENT! 6D25E008D8
332566 OC010 Engine Stopped 11-12-2025 14:50:34 10,093 500 OVER BEURT URGENT! 6D25E008D8
332530 OC010 Battery Voltage 11-12-2025 12:53:18 10,091 500 OVER BEURT URGENT! 6D25E008D8
332525 OC010 Engine Stopped 11-12-2025 12:40:29 10,091 500 OVER BEURT URGENT! 6D25E008D8
332523 OC010 kW Overload Alarm Electrical Trip 11-12-2025 12:39:23 10,091 500 OVER BEURT URGENT! 6D25E008D8
332514 OC010 Generator Over Current Warning 11-12-2025 12:29:24 10,091 500 OVER BEURT URGENT! 6D25E008D8
332515 OC010 Generator Over Current Warning 11-12-2025 12:29:23 10,091 500 OVER BEURT URGENT! 6D25E008D8
332504 OC010 Engine Stopped 11-12-2025 12:10:15 10,091 500 OVER BEURT URGENT! 6D25E008D8
332505 OC010 Battery Voltage 11-12-2025 12:09:59 10,091 500 OVER BEURT URGENT! 6D25E008D8
332496 OC010 Engine Stopped 11-12-2025 11:17:50 10,091 500 OVER BEURT URGENT! 6D25E008D8
332495 OC010 Battery Voltage 11-12-2025 11:14:31 10,091 500 OVER BEURT URGENT! 6D25E008D8
330844 OC010 Battery Voltage 05-12-2025 09:24:03 10,091 500 OVER BEURT URGENT! 6D25E008D8
330837 OC010 Engine Stopped 05-12-2025 08:57:13 10,091 500 OVER BEURT URGENT! 6D25E008D8
326337 OC010 Battery Voltage 15-11-2025 05:02:55 9,955 500 OVER BEURT URGENT! 6D25E008D8
326234 OC010 Engine Stopped 14-11-2025 15:27:51 9,955 500 OVER BEURT URGENT! 6D25E008D8
320457 OC010 Battery Voltage 31-10-2025 11:02:22 9,835 500 OVER BEURT URGENT! 6D25E008D8
320438 OC010 Engine Stopped 31-10-2025 10:47:56 9,835 500 OVER BEURT URGENT! 6D25E008D8
320373 OC010 Battery Voltage 31-10-2025 10:19:48 9,835 500 OVER BEURT URGENT! 6D25E008D8
320366 OC010 Engine Stopped 31-10-2025 10:17:08 9,835 500 OVER BEURT URGENT! 6D25E008D8
320359 OC010 Battery Voltage 31-10-2025 10:15:36 9,835 500 OVER BEURT URGENT! 6D25E008D8
320290 OC010 Engine Stopped 31-10-2025 09:36:21 9,835 500 OVER BEURT URGENT! 6D25E008D8
320205 OC010 High Coolant Temp Warning 31-10-2025 08:04:12 9,833 500 OVER BEURT URGENT! 6D25E008D8
320192 OC010 High Coolant Temp Warning 31-10-2025 07:59:28 9,833 500 OVER BEURT URGENT! 6D25E008D8
314366 OC010 Battery Voltage 10-10-2025 10:17:39 9,669 500 OVER BEURT URGENT! 6D25E008D8
314355 OC010 Engine Stopped 10-10-2025 09:43:42 9,669 500 OVER BEURT URGENT! 6D25E008D8
26–50 van 397